LKMT Weather Reports


Display with metric or nautical units.
time (UTC)temp
F
wind
direction
speed
MPH
gust
MPH
rain 1hr
in
rain 24hr
in
rain mn
in
humidity
%
barometer
mb
20260906022211 55 220 5.0 0.0 0.00 0.00 0.00 82
20260906020235 55 220 6.0 0.0 0.00 0.00 0.00 82 1023.0
20260906013224 55 250 3.0 0.0 0.00 0.00 0.00 82 1022.0
20260906012532 57 250 5.0 0.0 0.00 0.00 0.00 76
20260906010236 55 240 5.0 0.0 0.00 0.00 0.00 82 1022.0
20260906003224 57 200 5.0 0.0 0.00 0.00 0.00 82 1022.0
20260906002226 57 200 5.0 0.0 0.00 0.00 0.00 76
20260906000234 57 210 5.0 0.0 0.00 0.00 0.00 82 1022.0
20260905233223 59 0 2.0 0.0 0.00 0.00 0.00 77 1022.0
20260905232210 61 0 2.0 0.0 0.00 0.00 0.00 67
20260905230237 59 360 6.0 0.0 0.00 0.00 0.00 67 1022.0
20260905223224 59 360 6.0 0.0 0.00 0.00 0.00 67 1022.0
20260905222630 59 10 9.0 0.0 0.00 0.00 0.00 67
20260905220236 59 10 9.0 0.0 0.00 0.00 0.00 67 1022.0
20260905213223 59 250 5.0 0.0 0.00 0.00 0.00 67 1021.0
20260905212225 59 240 7.0 0.0 0.00 0.00 0.00 62
20260905210236 59 240 7.0 0.0 0.00 0.00 0.00 62 1021.0
20260905210059 59 220 10.0 0.0 0.00 0.00 0.00 62 1020.0
20260905205137 59 220 10.0 0.0 0.00 0.00 0.00 62 1020.0
20260905204737 59 220 10.0 0.0 0.00 0.00 0.00 62 1020.0
20260905204138 59 220 10.0 0.0 0.00 0.00 0.00 62 1020.0
20260905203238 59 220 10.0 0.0 0.00 0.00 0.00 62 1020.0
20260905202228 64 230 12.0 0.0 0.00 0.00 0.00 52
20260905200938 61 230 10.0 0.0 0.00 0.00 0.00 59 1020.0
20260905200341 61 230 10.0 0.0 0.00 0.00 0.00 59 1020.0
20260905195938 63 230 8.0 0.0 0.00 0.00 0.00 59 1020.0
20260905195238 63 230 8.0 0.0 0.00 0.00 0.00 59 1020.0
20260905194138 63 230 8.0 0.0 0.00 0.00 0.00 59 1020.0
20260905193451 63 230 8.0 0.0 0.00 0.00 0.00 59 1020.0
20260905193238 63 230 8.0 0.0 0.00 0.00 0.00 59 1020.0
20260905192739 64 250 8.0 0.0 0.00 0.00 0.00 52 1020.0
20260905192624 64 240 9.0 0.0 0.00 0.00 0.00 52
20260905192145 64 250 8.0 0.0 0.00 0.00 0.00 52 1020.0
20260905191638 64 250 8.0 0.0 0.00 0.00 0.00 52 1020.0
20260905182211 66 260 7.0 0.0 0.00 0.00 0.00 48
20260905181338 66 260 8.0 0.0 0.00 0.00 0.00 48 1019.0
20260905181138 66 260 8.0 0.0 0.00 0.00 0.00 48 1019.0
20260905180738 66 260 8.0 0.0 0.00 0.00 0.00 48 1019.0
20260905180341 66 260 8.0 0.0 0.00 0.00 0.00 48 1019.0
20260905180140 68 280 7.0 0.0 0.00 0.00 0.00 45 1019.0
20260905175438 68 280 7.0 0.0 0.00 0.00 0.00 45 1019.0
20260905175238 68 280 7.0 0.0 0.00 0.00 0.00 45 1019.0
20260905174738 68 280 7.0 0.0 0.00 0.00 0.00 45 1019.0
20260905174138 68 280 7.0 0.0 0.00 0.00 0.00 45 1019.0
20260905173452 68 280 7.0 0.0 0.00 0.00 0.00 45 1019.0
20260905172738 70 270 12.0 0.0 0.00 0.00 0.00 43 1019.0
20260905172248 70 270 12.0 0.0 0.00 0.00 0.00 43
20260905172152 70 270 12.0 0.0 0.00 0.00 0.00 43 1019.0
20260905171600 70 270 12.0 0.0 0.00 0.00 0.00 43 1019.0
20260905170552 70 270 12.0 0.0 0.00 0.00 0.00 43 1019.0
20260905170237 70 270 12.0 0.0 0.00 0.00 0.00 43 1019.0
20260905163838 70 270 15.0 0.0 0.00 0.00 0.00 40 1018.0
20260905163231 70 270 15.0 0.0 0.00 0.00 0.00 40 1018.0
20260905162937 70 280 9.0 0.0 0.00 0.00 0.00 40 1018.0
20260905162616 70 280 14.0 0.0 0.00 0.00 0.00 40
20260905162245 70 280 9.0 0.0 0.00 0.00 0.00 40 1018.0
20260905161639 70 280 9.0 0.0 0.00 0.00 0.00 40 1018.0
20260905161139 70 280 9.0 0.0 0.00 0.00 0.00 40 1018.0
20260905160838 70 280 9.0 0.0 0.00 0.00 0.00 40 1018.0
20260905160340 70 280 9.0 0.0 0.00 0.00 0.00 40 1018.0
20260905154738 72 270 14.0 0.0 0.00 0.00 0.00 37 1018.0
20260905154559 72 270 14.0 0.0 0.00 0.00 0.00 37 1018.0
20260905154238 72 270 14.0 0.0 0.00 0.00 0.00 37 1018.0
20260905152306 73 260 14.0 0.0 0.00 0.00 0.00 33
20260905151849 72 260 16.0 0.0 0.00 0.00 0.00 35 1018.0
20260905151139 72 260 16.0 0.0 0.00 0.00 0.00 35 1018.0
20260905150637 72 260 16.0 0.0 0.00 0.00 0.00 35 1018.0
20260905145938 73 260 20.0 0.0 0.00 0.00 0.00 33 1017.0
20260905145638 73 260 20.0 0.0 0.00 0.00 0.00 33 1017.0
20260905145137 73 260 20.0 0.0 0.00 0.00 0.00 33 1017.0
20260905144238 73 260 20.0 0.0 0.00 0.00 0.00 33 1017.0
20260905143739 73 260 20.0 0.0 0.00 0.00 0.00 33 1017.0
20260905142145 73 260 17.0 0.0 0.00 0.00 0.00 38 1017.0
20260905142048 73 260 18.0 0.0 0.00 0.00 0.00 38
20260905140451 73 260 17.0 0.0 0.00 0.00 0.00 38 1017.0
20260905140142 73 280 15.0 0.0 0.00 0.00 0.00 38 1017.0
20260905135100 73 280 15.0 0.0 0.00 0.00 0.00 38 1017.0
20260905134637 73 280 15.0 0.0 0.00 0.00 0.00 38 1017.0
20260905134238 73 280 15.0 0.0 0.00 0.00 0.00 38 1017.0
20260905133839 73 280 15.0 0.0 0.00 0.00 0.00 38 1017.0
20260905133451 73 280 15.0 0.0 0.00 0.00 0.00 38 1017.0
20260905133241 73 280 15.0 0.0 0.00 0.00 0.00 38 1017.0
20260905133138 73 270 16.0 0.0 0.00 0.00 0.00 40 1017.0
20260905132359 73 270 16.0 0.0 0.00 0.00 0.00 38
20260905132248 73 270 16.0 0.0 0.00 0.00 0.00 40 1017.0
20260905131637 73 270 16.0 0.0 0.00 0.00 0.00 40 1017.0
20260905131138 73 270 16.0 0.0 0.00 0.00 0.00 40 1017.0
20260905130738 73 270 16.0 0.0 0.00 0.00 0.00 40 1017.0
20260905130242 73 270 16.0 0.0 0.00 0.00 0.00 40 1017.0
20260905125638 73 260 17.0 0.0 0.00 0.00 0.00 40 1018.0
20260905125439 73 260 17.0 0.0 0.00 0.00 0.00 40 1018.0
20260905125238 73 260 17.0 0.0 0.00 0.00 0.00 40 1018.0
20260905124938 73 260 17.0 0.0 0.00 0.00 0.00 40 1018.0
20260905124559 73 260 17.0 0.0 0.00 0.00 0.00 40 1018.0
20260905124059 73 260 17.0 0.0 0.00 0.00 0.00 40 1018.0
20260905123639 73 260 17.0 0.0 0.00 0.00 0.00 40 1018.0
20260905123338 73 260 17.0 0.0 0.00 0.00 0.00 40 1018.0
20260905123138 72 280 13.0 0.0 0.00 0.00 0.00 43 1018.0
20260905122256 73 280 12.0 0.0 0.00 0.00 0.00 40
20260905122145 72 280 13.0 0.0 0.00 0.00 0.00 43 1018.0
20260905121749 72 280 13.0 0.0 0.00 0.00 0.00 43 1018.0
20260905121138 72 280 13.0 0.0 0.00 0.00 0.00 43 1018.0
20260905120553 72 280 13.0 0.0 0.00 0.00 0.00 43 1018.0
20260905115845 72 250 18.0 0.0 0.00 0.00 0.00 46 1018.0
20260905114059 72 250 18.0 0.0 0.00 0.00 0.00 46 1018.0
20260905113230 72 250 18.0 0.0 0.00 0.00 0.00 46 1018.0
20260905112738 70 250 15.0 0.0 0.00 0.00 0.00 49 1018.0
20260905112251 70 250 15.0 0.0 0.00 0.00 0.00 49 1018.0
20260905112244 70 260 14.0 0.0 0.00 0.00 0.00 49
20260905111852 70 250 15.0 0.0 0.00 0.00 0.00 49 1018.0
20260905110231 70 250 15.0 0.0 0.00 0.00 0.00 49 1018.0
20260905105238 70 230 16.0 0.0 0.00 0.00 0.00 52 1018.0
20260905105100 70 230 16.0 0.0 0.00 0.00 0.00 52 1018.0
20260905104638 70 230 16.0 0.0 0.00 0.00 0.00 52 1018.0
20260905104338 70 230 16.0 0.0 0.00 0.00 0.00 52 1018.0
20260905103231 70 230 16.0 0.0 0.00 0.00 0.00 52 1018.0
20260905102838 68 240 18.0 0.0 0.00 0.00 0.00 60 1018.0
20260905102637 68 240 18.0 0.0 0.00 0.00 0.00 60
20260905102343 68 240 18.0 0.0 0.00 0.00 0.00 60 1018.0
20260905101938 68 240 18.0 0.0 0.00 0.00 0.00 60 1018.0
20260905101438 68 240 18.0 0.0 0.00 0.00 0.00 60 1018.0
20260905100838 68 240 18.0 0.0 0.00 0.00 0.00 60 1018.0
20260905100344 68 240 18.0 0.0 0.00 0.00 0.00 60 1018.0
20260905095238 64 250 16.0 0.0 0.00 0.00 0.00 67 1018.0
20260905094838 64 250 16.0 0.0 0.00 0.00 0.00 67 1018.0
20260905094238 64 250 16.0 0.0 0.00 0.00 0.00 67 1018.0
20260905093739 64 250 16.0 0.0 0.00 0.00 0.00 67 1018.0
20260905092438 64 250 16.0 0.0 0.00 0.00 0.00 72 1018.0
20260905092242 64 250 16.0 0.0 0.00 0.00 0.00 72
20260905091951 64 250 16.0 0.0 0.00 0.00 0.00 72 1018.0
20260905090839 64 250 16.0 0.0 0.00 0.00 0.00 72 1018.0
20260905090236 64 250 16.0 0.0 0.00 0.00 0.00 72 1018.0
20260905084238 63 240 16.0 0.0 0.00 0.00 0.00 77 1018.0
20260905083231 63 240 16.0 0.0 0.00 0.00 0.00 77 1018.0
20260905082235 63 240 12.0 0.0 0.00 0.00 0.00 77
20260905080234 63 230 12.0 0.0 0.00 0.00 0.00 77 1018.0
20260905073230 61 230 9.0 0.0 0.00 0.00 0.00 87 1018.0
20260905072535 61 0 5.0 0.0 0.00 0.00 0.00 87
20260905070232 61 270 5.0 0.0 0.00 0.00 0.00 82 1017.0
20260905063231 61 250 10.0 0.0 0.00 0.00 0.00 82 1017.0
20260905062235 63 220 12.0 0.0 0.00 0.00 0.00 77
20260905060237 61 220 12.0 0.0 0.00 0.00 0.00 82 1017.0
20260905053223 61 220 12.0 0.0 0.00 0.00 0.00 87 1017.0
20260905052231 64 220 12.0 0.0 0.00 0.00 0.00 72
20260905050234 63 220 10.0 0.0 0.00 0.00 0.00 82 1016.0
20260905043224 63 220 9.0 0.0 0.00 0.00 0.00 82 1015.0
20260905042636 64 250 7.0 0.0 0.00 0.00 0.00 72
20260905042404 63 240 10.0 0.0 0.00 0.00 0.00 82 1016.0
20260905040237 64 260 8.0 0.0 0.00 0.00 0.00 77 1015.0
20260905033224 66 0 2.0 0.0 0.00 0.00 0.00 63 1015.0
20260905032235 68 0 2.0 0.0 0.00 0.00 0.00 60
20260905030234 68 120 5.0 0.0 0.00 0.00 0.00 60 1014.0
20260905023224 66 120 5.0 0.0 0.00 0.00 0.00 63 1014.0